Change the Weather History Date:

Sunday, September 1, 2013

  Actual Average Record
Temperature  
Mean Temperature 56 °F -  
Max Temperature 61 °F 59 °F - ()
Min Temperature 52 °F 47 °F - ()
Degree Days  
Heating Degree Days 8    
Growing Degree Days 6 (Base 50)    
Moisture  
Dew Point 50 °F    
Average Humidity 73    
Maximum Humidity 82    
Minimum Humidity 55    
Precipitation  
Precipitation 0.00 in - - ()
Sea Level Pressure  
Sea Level Pressure 30.11 in    
Wind  
Wind Speed 19 mph ()    
Max Wind Speed 29 mph    
Max Gust Speed 41 mph    
Visibility 7.5 miles    
Events      
T = Trace of Precipitation, MM = Missing Value Source: Averaged Metar Reports

Daily Weather History Graph

Daily Weather History Graph

Search for Another Location

Airport or City:

Trip Planner

Search our weather history database for the weather conditions in past years. The results will help you decide how hot, cold, wet, or windy it might be!

Date:

Astronomy

Sep. 01, 2013 Rise Set
Actual Time 6:15 AM BST 8:06 PM BST
Civil Twilight 5:35 AM BST 8:46 PM BST
Nautical Twilight 4:44 AM BST 9:35 PM BST
Astronomical Twilight 3:45 AM BST 10:34 PM BST
Moon 1:54 AM BST (9/1) 5:58 PM BST (9/1)
Length of Visible Light 15h 10m
Length of Day
13h 51m
Waning Crescent, 15% of the Moon is Illuminated
Sep 1
Waning Crescent
Sep 5
New
Sep 12
First Quarter
Sep 19
Full
Sep 27
Last Quarter

Hourly Weather History & Observations

Time (BST) Temp. Dew Point Humidity Pressure Visibility Wind Dir Wind Speed Gust Speed Precip Events Conditions
12:50 AM 53 °F 46 °F 70% 30.20 in 19 mi WSW 16.1 mph - -   Scattered Clouds
12:50 AM 53.6 °F 46.4 °F 77% 30.18 in - WSW 16.1 mph - N/A   Clear
1:50 AM 53.6 °F 46.4 °F 77% 30.18 in - West 21.9 mph - N/A   Clear
2:50 AM 53.6 °F 46.4 °F 77% 30.18 in - WSW 18.4 mph - N/A   Clear
3:50 AM 53.6 °F 48.2 °F 82% 30.15 in - West 19.6 mph - N/A   Clear
4:50 AM 53.6 °F 48.2 °F 82% 30.15 in - West 18.4 mph - N/A   Clear
5:50 AM 55.4 °F 48.2 °F 77% 30.15 in - West 24.2 mph - N/A   Clear
6:50 AM 55 °F 47 °F 68% 30.16 in 19 mi West 21.9 mph - -   Scattered Clouds
6:50 AM 55.4 °F 48.2 °F 77% 30.15 in 6.2 mi West 21.9 mph - N/A   Mostly Cloudy
7:50 AM 55.4 °F 48.2 °F 77% 30.15 in 6.2 mi West 21.9 mph - N/A   Mostly Cloudy
8:50 AM 55.4 °F 48.2 °F 77% 30.15 in 6.2 mi WSW 20.7 mph - N/A   Mostly Cloudy
9:50 AM 57 °F 49 °F 68% 30.16 in 25 mi West 18.4 mph - -   Scattered Clouds
9:50 AM 57.2 °F 50.0 °F 77% 30.15 in 6.2 mi West 18.4 mph - N/A   Mostly Cloudy
10:50 AM 57.2 °F 50.0 °F 77% 30.12 in 6.2 mi West 20.7 mph - N/A   Mostly Cloudy
11:50 AM 59.0 °F 50.0 °F 72% 30.09 in 6.2 mi West 20.7 mph - N/A   Mostly Cloudy
12:50 PM 59 °F 49 °F 61% 30.12 in 22 mi West 27.6 mph - -   Scattered Clouds
12:50 PM 59.0 °F 50.0 °F 72% 30.12 in 6.2 mi West 27.6 mph - N/A   Mostly Cloudy
1:50 PM 59.0 °F 48.2 °F 67% 30.09 in 6.2 mi West 27.6 mph - N/A   Mostly Cloudy
2:50 PM 59.0 °F 48.2 °F 67% 30.09 in 6.2 mi West 26.5 mph 38.0 mph N/A   Mostly Cloudy
3:50 PM 61 °F 49 °F 55% 30.09 in 22 mi West 28.8 mph - -   Partly Cloudy
3:50 PM 60.8 °F 50.0 °F 68% 30.06 in 6.2 mi West 28.8 mph 41.4 mph N/A   Mostly Cloudy
4:50 PM 60.8 °F 50.0 °F 68% 30.06 in 6.2 mi West 28.8 mph - N/A   Mostly Cloudy
5:50 PM 59.0 °F 50.0 °F 72% 30.06 in 6.2 mi West 23.0 mph - N/A   Mostly Cloudy
6:50 PM 61 °F 51 °F 62% 30.06 in 25 mi West 26.5 mph - -   Scattered Clouds
6:50 PM 60.8 °F 51.8 °F 72% 30.06 in 6.2 mi West 26.5 mph 40.3 mph N/A   Mostly Cloudy
7:50 PM 59.0 °F 51.8 °F 77% 30.04 in 6.2 mi West 18.4 mph - N/A   Scattered Clouds
8:50 PM 59.0 °F 51.8 °F 77% 30.04 in 6.2 mi West 20.7 mph - N/A   Partly Cloudy
9:50 PM 58 °F 53 °F 78% 30.06 in 25 mi West 15.0 mph - -   Scattered Clouds
9:50 PM 59.0 °F 53.6 °F 82% 30.06 in 6.2 mi West 15.0 mph - N/A   Partly Cloudy
10:50 PM 59.0 °F 53.6 °F 82% 30.04 in 6.2 mi West 16.1 mph - N/A   Partly Cloudy
11:50 PM 60.8 °F 55.4 °F 82% 30.01 in 6.2 mi West 23.0 mph - N/A   Partly Cloudy